,,Stat6,,Stat2,,Stat8,,Stat9,,Stat10,,Wind1,,Wind1,
time,status,PA1M_AVG,status,PR1M_SUM,status,RH1M_AVG,status,SR1M_AVG,status,TA1M_AVG,status,W1dAve1m,status,W1sAve1m,
2008-09-26, 00:00:00,VALID,919.169,VALID,0,VALID,100,VALID,-0.0339617,VALID,19.8972,VALID,226,VALID,0.239453,
2008-09-26, 00:01:00,VALID,919.164,VALID,0,VALID,100,VALID,-0.0169808,VALID,19.8875,VALID,191,VALID,0.730183,
2008-09-26, 00:02:00,VALID,919.172,VALID,0,VALID,100,VALID,0,VALID,19.874,VALID,180,VALID,1.42274,
2008-09-26, 00:03:00,VALID,919.191,VALID,0,VALID,100,VALID,0.0169808,VALID,19.8583,VALID,176,VALID,0.429688,
2008-09-26, 00:04:00,VALID,919.21,VALID,0,VALID,100,VALID,0,VALID,19.8388,VALID,203,VALID,0,
2008-09-26, 00:05:00,VALID,919.199,VALID,0,VALID,100,VALID,0,VALID,19.8418,VALID,222,VALID,0,
2008-09-26, 00:06:00,VALID,919.211,VALID,0,VALID,100,VALID,0,VALID,19.8386,VALID,214,VALID,0,
2008-09-26, 00:07:00,VALID,919.204,VALID,0,VALID,100,VALID,0,VALID,19.8421,VALID,211,VALID,0,
2008-09-26, 00:08:00,VALID,919.197,VALID,0,VALID,100,VALID,0,VALID,19.8416,VALID,211,VALID,0,
2008-09-26, 00:09:00,VALID,919.193,VALID,0,VALID,100,VALID,0,VALID,19.8583,VALID,229,VALID,0,
2008-09-26, 00:10:00,VALID,919.178,VALID,0,VALID,100,VALID,0,VALID,19.8575,VALID,216,VALID,0,
2008-09-26, 00:11:00,VALID,919.178,VALID,0,VALID,100,VALID,0,VALID,19.8585,VALID,207,VALID,0,
2008-09-26, 00:12:00,VALID,919.155,VALID,0,VALID,100,VALID,0,VALID,19.8548,VALID,188,VALID,0.0436357,
2008-09-26, 00:13:00,VALID,919.13,VALID,0,VALID,100,VALID,-0.0169808,VALID,19.8486,VALID,161,VALID,0.103743,
2008-09-26, 00:14:00,VALID,919.109,VALID,0,VALID,100,VALID,0.0169808,VALID,19.8323,VALID,141,VALID,0.0513889,
2008-09-26, 00:15:00,VALID,919.09,VALID,0,VALID,100,VALID,-0.0169808,VALID,19.8161,VALID,140,VALID,0,
2008-09-26, 00:16:00,VALID,919.086,VALID,0,VALID,100,VALID,0.0169808,VALID,19.8064,VALID,145,VALID,0.00114329,
2008-09-26, 00:17:00,VALID,919.071,VALID,0,VALID,100,VALID,0.0169808,VALID,19.7859,VALID,148,VALID,0,
2008-09-26, 00:18:00,VALID,919.064,VALID,0,VALID,100,VALID,0,VALID,19.7934,VALID,146,VALID,0,
2008-09-26, 00:19:00,VALID,919.082,VALID,0,VALID,100,VALID,0,VALID,19.7799,VALID,162,VALID,0,
2008-09-26, 00:20:00,VALID,919.094,VALID,0,VALID,100,VALID,-0.0339617,VALID,19.8161,VALID,212,VALID,0,
2008-09-26, 00:21:00,VALID,919.117,VALID,0,VALID,100,VALID,0,VALID,19.8323,VALID,212,VALID,0,
2008-09-26, 00:22:00,VALID,919.125,VALID,0,VALID,100,VALID,0,VALID,19.8451,VALID,224,VALID,0,
2008-09-26, 00:23:00,VALID,919.121,VALID,0.2,VALID,100,VALID,-0.0339617,VALID,19.855,VALID,318,VALID,0,
2008-09-26, 00:24:00,VALID,919.102,VALID,0,VALID,100,VALID,-0.0339617,VALID,19.868,VALID,18,VALID,0,
2008-09-26, 00:25:00,VALID,919.075,VALID,0.2,VALID,100,VALID,-0.0339617,VALID,19.868,VALID,22,VALID,0,
2008-09-26, 00:26:00,VALID,919.021,VALID,0.2,VALID,100,VALID,-0.0339617,VALID,19.8678,VALID,46,VALID,0.440505,
2008-09-26, 00:27:00,VALID,919.022,VALID,0.2,VALID,100,VALID,-0.0339617,VALID,19.875,VALID,60,VALID,0.504906,
2008-09-26, 00:28:00,VALID,919.023,VALID,0,VALID,100,VALID,0,VALID,19.8685,VALID,46,VALID,0,
2008-09-26, 00:29:00,VALID,919.025,VALID,0.8,VALID,100,VALID,-0.0169808,VALID,19.8318,VALID,32,VALID,0,
2008-09-26, 00:30:00,VALID,919.008,VALID,0.8,VALID,100,VALID,0,VALID,19.8221,VALID,32,VALID,0,
2008-09-26, 00:31:00,VALID,918.972,VALID,1,VALID,100,VALID,0,VALID,19.8351,VALID,63,VALID,0.0789063,
2008-09-26, 00:32:00,VALID,918.941,VALID,0.4,VALID,100,VALID,-0.0339617,VALID,19.8226,VALID,173,VALID,1.254,
2008-09-26, 00:33:00,VALID,918.924,VALID,0.6,VALID,100,VALID,0,VALID,19.7739,VALID,175,VALID,0.978659,
2008-09-26, 00:34:00,VALID,918.913,VALID,0.8,VALID,100,VALID,-0.0509425,VALID,19.7318,VALID,181,VALID,0.188772,
2008-09-26, 00:35:00,VALID,918.892,VALID,0.6,VALID,100,VALID,-0.0339617,VALID,19.7058,VALID,181,VALID,0,
2008-09-26, 00:36:00,VALID,918.89,VALID,0.8,VALID,100,VALID,-0.0169808,VALID,19.6763,VALID,181,VALID,0.373242,
2008-09-26, 00:37:00,VALID,918.863,VALID,0.6,VALID,100,VALID,-0.0339617,VALID,19.6674,VALID,179,VALID,0.766715,
2008-09-26, 00:38:00,VALID,918.844,VALID,0.4,VALID,100,VALID,-0.0339617,VALID,19.6571,VALID,176,VALID,0.547852,
2008-09-26, 00:39:00,VALID,918.839,VALID,0.2,VALID,100,VALID,0,VALID,19.6439,VALID,247,VALID,0.463481,
2008-09-26, 00:40:00,VALID,918.827,VALID,0.6,VALID,100,VALID,-0.0509425,VALID,19.6409,VALID,276,VALID,0,
2008-09-26, 00:41:00,VALID,918.824,VALID,0.6,VALID,100,VALID,-0.0509425,VALID,19.6506,VALID,283,VALID,0.18125,
2008-09-26, 00:42:00,VALID,918.82,VALID,0.8,VALID,100,VALID,-0.0509425,VALID,19.6636,VALID,286,VALID,0.521577,
2008-09-26, 00:43:00,VALID,918.807,VALID,0.8,VALID,100,VALID,-0.0849042,VALID,19.6604,VALID,278,VALID,0.969336,
2008-09-26, 00:44:00,VALID,918.807,VALID,0.8,VALID,100,VALID,-0.0679233,VALID,19.6674,VALID,288,VALID,0.232599,
2008-09-26, 00:45:00,VALID,918.792,VALID,0.2,VALID,100,VALID,-0.101885,VALID,19.6704,VALID,359,VALID,0,
2008-09-26, 00:46:00,VALID,918.801,VALID,0.6,VALID,100,VALID,-0.0679233,VALID,19.6736,VALID,16,VALID,0,
2008-09-26, 00:47:00,VALID,918.843,VALID,0.8,VALID,100,VALID,-0.0679233,VALID,19.6801,VALID,359,VALID,0.0546875,
2008-09-26, 00:48:00,VALID,918.848,VALID,0.6,VALID,100,VALID,-0.0509425,VALID,19.6931,VALID,20,VALID,0.0456032,
2008-09-26, 00:49:00,VALID,918.87,VALID,0.4,VALID,100,VALID,-0.0339617,VALID,19.6963,VALID,26,VALID,0.0746951,
2008-09-26, 00:50:00,VALID,918.886,VALID,0.4,VALID,100,VALID,-0.0509425,VALID,19.706,VALID,37,VALID,0.203819,
2008-09-26, 00:51:00,VALID,918.889,VALID,0.4,VALID,100,VALID,-0.0849042,VALID,19.7028,VALID,30,VALID,0.627131,
2008-09-26, 00:52:00,VALID,918.906,VALID,0.2,VALID,100,VALID,-0.0339617,VALID,19.709,VALID,22,VALID,0.00260417,
2008-09-26, 00:53:00,VALID,918.917,VALID,0.4,VALID,100,VALID,-0.0509425,VALID,19.7253,VALID,22,VALID,0,
2008-09-26, 00:54:00,VALID,918.912,VALID,0.4,VALID,100,VALID,-0.0509425,VALID,19.7415,VALID,22,VALID,0,
2008-09-26, 00:55:00,VALID,918.897,VALID,0.2,VALID,100,VALID,0,VALID,19.7447,VALID,22,VALID,0,
2008-09-26, 00:56:00,VALID,918.893,VALID,0.4,VALID,100,VALID,-0.0339617,VALID,19.7415,VALID,32,VALID,0.402435,
2008-09-26, 00:57:00,VALID,918.884,VALID,0.4,VALID,100,VALID,-0.0509425,VALID,19.7285,VALID,46,VALID,1.15263,
2008-09-26, 00:58:00,VALID,918.887,VALID,0.2,VALID,100,VALID,0,VALID,19.7283,VALID,31,VALID,1.14102,
2008-09-26, 00:59:00,VALID,918.883,VALID,0.4,VALID,100,VALID,0,VALID,19.7123,VALID,16,VALID,0.904726,
2008-09-26, 01:00:00,VALID,918.886,VALID,0.2,VALID,100,VALID,-0.0169808,VALID,19.6666,VALID,13,VALID,1.29358,
2008-09-26, 01:01:00,VALID,918.902,VALID,1,VALID,100,VALID,-0.0169808,VALID,19.6342,VALID,17,VALID,1.65859,
2008-09-26, 01:02:00,VALID,918.84,VALID,1.2,VALID,100,VALID,-0.0169808,VALID,19.6145,VALID,21,VALID,1.81019,
2008-09-26, 01:03:00,VALID,918.819,VALID,1.2,VALID,100,VALID,0,VALID,19.5987,VALID,34,VALID,0.407138,
2008-09-26, 01:04:00,VALID,918.813,VALID,1,VALID,100,VALID,0,VALID,19.5303,VALID,44,VALID,0.034446,
2008-09-26, 01:05:00,VALID,918.769,VALID,0.8,VALID,100,VALID,-0.0339617,VALID,19.4722,VALID,139,VALID,0.325107,
2008-09-26, 01:06:00,VALID,918.748,VALID,0.8,VALID,100,VALID,-0.0339617,VALID,19.4235,VALID,258,VALID,0.589177,
2008-09-26, 01:07:00,VALID,918.738,VALID,0.6,VALID,100,VALID,-0.0509425,VALID,19.3294,VALID,332,VALID,0.53811,
2008-09-26, 01:08:00,VALID,918.742,VALID,0.8,VALID,100,VALID,-0.0169808,VALID,19.284,VALID,151,VALID,1.43714,
2008-09-26, 01:09:00,VALID,918.767,VALID,0.4,VALID,100,VALID,-0.0679233,VALID,19.2581,VALID,180,VALID,0.43093,
2008-09-26, 01:10:00,VALID,918.763,VALID,0.6,VALID,100,VALID,-0.0169808,VALID,19.2386,VALID,209,VALID,0.238948,
2008-09-26, 01:11:00,VALID,918.761,VALID,0.6,VALID,100,VALID,-0.0169808,VALID,19.2416,VALID,239,VALID,0.0232515,
2008-09-26, 01:12:00,VALID,918.765,VALID,0.6,VALID,100,VALID,0,VALID,19.2316,VALID,243,VALID,0,
2008-09-26, 01:13:00,VALID,918.734,VALID,0.6,VALID,100,VALID,-0.0169808,VALID,19.2513,VALID,240,VALID,0,
2008-09-26, 01:14:00,VALID,918.71,VALID,0.4,VALID,100,VALID,-0.0169808,VALID,19.2738,VALID,251,VALID,1.13403,
2008-09-26, 01:15:00,VALID,918.675,VALID,0.2,VALID,100,VALID,-0.0169808,VALID,19.2708,VALID,254,VALID,0.805689,
2008-09-26, 01:16:00,VALID,918.671,VALID,0.2,VALID,100,VALID,-0.0169808,VALID,19.2546,VALID,226,VALID,0.81875,
2008-09-26, 01:17:00,VALID,918.647,VALID,0.4,VALID,100,VALID,-0.0339617,VALID,19.2676,VALID,229,VALID,0.0116319,
2008-09-26, 01:18:00,VALID,918.637,VALID,0.4,VALID,100,VALID,0,VALID,19.2835,VALID,233,VALID,0.382102,
2008-09-26, 01:19:00,VALID,918.632,VALID,0.2,VALID,100,VALID,-0.0169808,VALID,19.2773,VALID,245,VALID,0.923549,
2008-09-26, 01:20:00,VALID,918.633,VALID,0.2,VALID,100,VALID,-0.0509425,VALID,19.271,VALID,243,VALID,0.641226,
2008-09-26, 01:21:00,VALID,918.631,VALID,0.6,VALID,100,VALID,-0.0849042,VALID,19.2483,VALID,246,VALID,1.15941,
2008-09-26, 01:22:00,VALID,918.617,VALID,0.6,VALID,100,VALID,-0.0169808,VALID,19.2256,VALID,216,VALID,1.40625,
2008-09-26, 01:23:00,VALID,918.595,VALID,0.6,VALID,100,VALID,-0.0509425,VALID,19.1997,VALID,230,VALID,1.32298,
2008-09-26, 01:24:00,VALID,918.606,VALID,0.6,VALID,100,VALID,0,VALID,19.173,VALID,242,VALID,1.11493,
2008-09-26, 01:25:00,VALID,918.631,VALID,0.8,VALID,100,VALID,-0.0339617,VALID,19.157,VALID,258,VALID,1.4016,
2008-09-26, 01:26:00,VALID,918.613,VALID,1,VALID,100,VALID,-0.0339617,VALID,19.1475,VALID,251,VALID,2.0238,
2008-09-26, 01:27:00,VALID,918.581,VALID,1,VALID,100,VALID,-0.0339617,VALID,19.1508,VALID,256,VALID,1.88523,
2008-09-26, 01:28:00,VALID,918.57,VALID,1.2,VALID,100,VALID,-0.0679233,VALID,19.1508,VALID,240,VALID,1.31286,
2008-09-26, 01:29:00,VALID,918.528,VALID,0.8,VALID,100,VALID,-0.0169808,VALID,19.167,VALID,236,VALID,0.790015,
2008-09-26, 01:30:00,VALID,918.502,VALID,0.8,VALID,100,VALID,-0.0169808,VALID,19.167,VALID,250,VALID,0.636814,
2008-09-26, 01:31:00,VALID,918.462,VALID,1,VALID,100,VALID,-0.0169808,VALID,19.1767,VALID,239,VALID,1.12333,
2008-09-26, 01:32:00,VALID,918.44,VALID,0.6,VALID,100,VALID,0,VALID,19.1865,VALID,240,VALID,1.64825,
2008-09-26, 01:33:00,VALID,918.408,VALID,0.6,VALID,100,VALID,-0.0509425,VALID,19.2092,VALID,254,VALID,2.50959,
2008-09-26, 01:34:00,VALID,918.422,VALID,0.6,VALID,100,VALID,-0.0169808,VALID,19.2254,VALID,246,VALID,2.36433,
2008-09-26, 01:35:00,VALID,918.38,VALID,0.6,VALID,100,VALID,0,VALID,19.2511,VALID,259,VALID,2.26023,
2008-09-26, 01:36:00,VALID,918.372,VALID,0.6,VALID,100,VALID,-0.0339617,VALID,19.2546,VALID,246,VALID,2.38333,
2008-09-26, 01:37:00,VALID,918.399,VALID,0.6,VALID,100,VALID,0.0169808,VALID,19.2543,VALID,258,VALID,1.63802,
2008-09-26, 01:38:00,VALID,918.434,VALID,0.8,VALID,100,VALID,-0.0169808,VALID,19.2548,VALID,256,VALID,1.15434,
2008-09-26, 01:39:00,VALID,918.432,VALID,0.6,VALID,100,VALID,-0.0169808,VALID,19.2451,VALID,258,VALID,1.87333,
2008-09-26, 01:40:00,VALID,918.462,VALID,0.6,VALID,100,VALID,0,VALID,19.2084,VALID,277,VALID,1.15661,
2008-09-26, 01:41:00,VALID,918.435,VALID,0.6,VALID,100,VALID,0.0169808,VALID,19.2059,VALID,256,VALID,1.09884,
2008-09-26, 01:42:00,VALID,918.426,VALID,0.4,VALID,100,VALID,-0.0509425,VALID,19.1897,VALID,250,VALID,1.25417,
2008-09-26, 01:43:00,VALID,918.41,VALID,0.4,VALID,100,VALID,-0.0169808,VALID,19.1964,VALID,236,VALID,0.581641,
2008-09-26, 01:44:00,VALID,918.406,VALID,0.2,VALID,100,VALID,-0.0169808,VALID,19.1994,VALID,243,VALID,0.662946,
2008-09-26, 01:45:00,VALID,918.393,VALID,0.2,VALID,100,VALID,0,VALID,19.2027,VALID,238,VALID,0.00816761,
2008-09-26, 01:46:00,VALID,918.358,VALID,0.2,VALID,100,VALID,-0.0339617,VALID,19.2159,VALID,209,VALID,0.00109012,
2008-09-26, 01:47:00,VALID,918.373,VALID,0.2,VALID,100,VALID,-0.0169808,VALID,19.2187,VALID,213,VALID,0.0901989,
2008-09-26, 01:48:00,VALID,918.374,VALID,0,VALID,100,VALID,-0.0169808,VALID,19.2286,VALID,238,VALID,0.0878906,
2008-09-26, 01:49:00,VALID,918.374,VALID,0.2,VALID,100,VALID,0,VALID,19.2217,VALID,268,VALID,0.40263,
2008-09-26, 01:50:00,VALID,918.373,VALID,0,VALID,100,VALID,0,VALID,19.2251,VALID,266,VALID,0,
2008-09-26, 01:51:00,VALID,918.388,VALID,0.2,VALID,100,VALID,0,VALID,19.2289,VALID,265,VALID,0.417411,
2008-09-26, 01:52:00,VALID,918.415,VALID,0,VALID,100,VALID,-0.0679233,VALID,19.2251,VALID,261,VALID,0.990319,
2008-09-26, 01:53:00,VALID,918.443,VALID,0.2,VALID,100,VALID,-0.0169808,VALID,19.2221,VALID,270,VALID,1.12682,
2008-09-26, 01:54:00,VALID,918.477,VALID,0.2,VALID,100,VALID,-0.0339617,VALID,19.2059,VALID,248,VALID,0.954241,
2008-09-26, 01:55:00,VALID,918.495,VALID,0.4,VALID,100,VALID,-0.0169808,VALID,19.1964,VALID,256,VALID,0.541853,
2008-09-26, 01:56:00,VALID,918.49,VALID,0.6,VALID,100,VALID,-0.0169808,VALID,19.1929,VALID,250,VALID,1.52433,
2008-09-26, 01:57:00,VALID,918.485,VALID,0.8,VALID,100,VALID,0,VALID,19.1867,VALID,261,VALID,1.52965,
2008-09-26, 01:58:00,VALID,918.471,VALID,1.2,VALID,100,VALID,-0.0169808,VALID,19.1802,VALID,262,VALID,1.51715,
2008-09-26, 01:59:00,VALID,918.455,VALID,0.8,VALID,100,VALID,0,VALID,19.173,VALID,238,VALID,1.0332,
2008-09-26, 02:00:00,VALID,918.423,VALID,0.8,VALID,100,VALID,-0.0339617,VALID,19.1698,VALID,251,VALID,1.81978,
2008-09-26, 02:01:00,VALID,918.413,VALID,0.8,VALID,100,VALID,-0.0339617,VALID,19.1637,VALID,250,VALID,2.22561,
2008-09-26, 02:02:00,VALID,918.399,VALID,0.8,VALID,100,VALID,0,VALID,19.1503,VALID,241,VALID,1.83027,
2008-09-26, 02:03:00,VALID,918.379,VALID,0.8,VALID,100,VALID,0,VALID,19.144,VALID,247,VALID,1.51399,
2008-09-26, 02:04:00,VALID,918.366,VALID,0.8,VALID,100,VALID,-0.0679233,VALID,19.1253,VALID,248,VALID,1.46074,
2008-09-26, 02:05:00,VALID,918.365,VALID,0.6,VALID,100,VALID,-0.101885,VALID,19.1128,VALID,243,VALID,1.17411,
2008-09-26, 02:06:00,VALID,918.35,VALID,0.6,VALID,100,VALID,-0.101885,VALID,19.1098,VALID,253,VALID,1.4135,
2008-09-26, 02:07:00,VALID,918.34,VALID,0.4,VALID,100,VALID,-0.118866,VALID,19.0866,VALID,245,VALID,1.45046,
2008-09-26, 02:08:00,VALID,918.313,VALID,0.6,VALID,100,VALID,-0.118866,VALID,19.0709,VALID,243,VALID,1.45712,
2008-09-26, 02:09:00,VALID,918.303,VALID,0.4,VALID,100,VALID,-0.101885,VALID,19.0676,VALID,235,VALID,0.975174,
2008-09-26, 02:10:00,VALID,918.27,VALID,0.6,VALID,100,VALID,-0.101885,VALID,18.9599,VALID,217,VALID,2.6282,
2008-09-26, 02:11:00,VALID,918.244,VALID,0.4,VALID,100,VALID,-0.101885,VALID,18.8503,VALID,206,VALID,1.63027,
2008-09-26, 02:12:00,VALID,918.22,VALID,0.4,VALID,100,VALID,-0.101885,VALID,18.7949,VALID,198,VALID,1.75817,
2008-09-26, 02:13:00,VALID,918.21,VALID,0.4,VALID,100,VALID,-0.118866,VALID,18.7854,VALID,180,VALID,1.60138,
2008-09-26, 02:14:00,VALID,918.191,VALID,0.4,VALID,100,VALID,-0.118866,VALID,18.7852,VALID,172,VALID,0.084517,
2008-09-26, 02:15:00,VALID,918.182,VALID,0.4,VALID,100,VALID,-0.101885,VALID,18.8246,VALID,154,VALID,1.03234,
2008-09-26, 02:16:00,VALID,918.19,VALID,0.2,VALID,100,VALID,-0.118866,VALID,18.8176,VALID,160,VALID,0.00576637,
2008-09-26, 02:17:00,VALID,918.164,VALID,0.4,VALID,100,VALID,-0.118866,VALID,18.8144,VALID,154,VALID,0,
2008-09-26, 02:18:00,VALID,918.156,VALID,0.2,VALID,100,VALID,-0.118866,VALID,18.8116,VALID,172,VALID,0.516768,
2008-09-26, 02:19:00,VALID,918.149,VALID,0.2,VALID,100,VALID,-0.0339617,VALID,18.7872,VALID,188,VALID,0.655717,
2008-09-26, 02:20:00,VALID,918.139,VALID,0.2,VALID,100,VALID,0,VALID,18.7805,VALID,190,VALID,0.432736,
2008-09-26, 02:21:00,VALID,918.108,VALID,0.4,VALID,100,VALID,0,VALID,18.7738,VALID,182,VALID,0.00497159,
2008-09-26, 02:22:00,VALID,918.08,VALID,0.6,VALID,100,VALID,0,VALID,18.761,VALID,197,VALID,0.217842,
2008-09-26, 02:23:00,VALID,918.056,VALID,0.4,VALID,100,VALID,0,VALID,18.7446,VALID,175,VALID,0.512821,
2008-09-26, 02:24:00,VALID,918.015,VALID,0.6,VALID,100,VALID,0,VALID,18.7251,VALID,161,VALID,1.02416,
2008-09-26, 02:25:00,VALID,917.994,VALID,0.4,VALID,100,VALID,0.0339617,VALID,18.7087,VALID,155,VALID,1.66552,
2008-09-26, 02:26:00,VALID,917.928,VALID,0.4,VALID,100,VALID,0,VALID,18.7024,VALID,165,VALID,1.81195,
2008-09-26, 02:27:00,VALID,917.906,VALID,0.4,VALID,100,VALID,0.0169808,VALID,18.6825,VALID,141,VALID,1.51599,
2008-09-26, 02:28:00,VALID,917.872,VALID,0.4,VALID,100,VALID,0,VALID,18.6894,VALID,134,VALID,2.01228,
2008-09-26, 02:29:00,VALID,917.859,VALID,0.4,VALID,100,VALID,0,VALID,18.6698,VALID,141,VALID,2.15434,
2008-09-26, 02:30:00,VALID,917.833,VALID,0.4,VALID,100,VALID,0,VALID,18.6338,VALID,146,VALID,1.97115,
2008-09-26, 02:31:00,VALID,917.815,VALID,0.2,VALID,100,VALID,0.0509425,VALID,18.5952,VALID,137,VALID,1.73438,
2008-09-26, 02:32:00,VALID,917.81,VALID,0,VALID,100,VALID,0,VALID,18.5917,VALID,141,VALID,1.47476,
2008-09-26, 02:33:00,VALID,917.811,VALID,0.2,VALID,100,VALID,0,VALID,18.6081,VALID,140,VALID,1.03316,
2008-09-26, 02:34:00,VALID,917.799,VALID,0.2,VALID,100,VALID,0,VALID,18.6181,VALID,139,VALID,1.00053,
2008-09-26, 02:35:00,VALID,917.796,VALID,0,VALID,100,VALID,0.0169808,VALID,18.641,VALID,144,VALID,1.35194,
2008-09-26, 02:36:00,VALID,917.797,VALID,0.2,VALID,100,VALID,0,VALID,18.6535,VALID,138,VALID,1.23775,
2008-09-26, 02:37:00,VALID,917.775,VALID,0.2,VALID,100,VALID,0,VALID,18.6505,VALID,131,VALID,1.40934,
2008-09-26, 02:38:00,VALID,917.757,VALID,0.2,VALID,100,VALID,0,VALID,18.6503,VALID,132,VALID,1.81445,
2008-09-26, 02:39:00,VALID,917.748,VALID,0,VALID,100,VALID,0,VALID,18.6373,VALID,144,VALID,1.82449,
2008-09-26, 02:40:00,VALID,917.724,VALID,0.2,VALID,100,VALID,0.0169808,VALID,18.6149,VALID,134,VALID,2.34695,
2008-09-26, 02:41:00,VALID,917.705,VALID,0,VALID,100,VALID,0,VALID,18.5954,VALID,147,VALID,1.82546,
2008-09-26, 02:42:00,VALID,917.699,VALID,0.2,VALID,100,VALID,0.0339617,VALID,18.6084,VALID,135,VALID,1.40078,
2008-09-26, 02:43:00,VALID,917.694,VALID,0,VALID,100,VALID,0.0339617,VALID,18.5759,VALID,143,VALID,1.99183,
2008-09-26, 02:44:00,VALID,917.658,VALID,0,VALID,100,VALID,0,VALID,18.4949,VALID,143,VALID,1.09916,
2008-09-26, 02:45:00,VALID,917.628,VALID,0.2,VALID,100,VALID,0.0169808,VALID,18.4235,VALID,135,VALID,2.04978,
2008-09-26, 02:46:00,VALID,917.604,VALID,0,VALID,100,VALID,0.0169808,VALID,18.3714,VALID,148,VALID,1.77435,
2008-09-26, 02:47:00,VALID,917.587,VALID,0.2,VALID,100,VALID,0.0339617,VALID,18.3095,VALID,149,VALID,1.72783,
2008-09-26, 02:48:00,VALID,917.585,VALID,0,VALID,100,VALID,0.0339617,VALID,18.2708,VALID,153,VALID,1.52515,
2008-09-26, 02:49:00,VALID,917.593,VALID,0,VALID,100,VALID,0.0169808,VALID,18.2352,VALID,146,VALID,1.28343,
2008-09-26, 02:50:00,VALID,917.579,VALID,0,VALID,100,VALID,0.0169808,VALID,18.2254,VALID,146,VALID,0.311111,
2008-09-26, 02:51:00,VALID,917.598,VALID,0.2,VALID,100,VALID,0,VALID,18.1863,VALID,150,VALID,0.556784,
2008-09-26, 02:52:00,VALID,917.59,VALID,0,VALID,100,VALID,0,VALID,18.184,VALID,152,VALID,0.526042,
2008-09-26, 02:53:00,VALID,917.601,VALID,0,VALID,100,VALID,-0.0169808,VALID,18.174,VALID,139,VALID,0.102273,
2008-09-26, 02:54:00,VALID,917.581,VALID,0,VALID,100,VALID,0,VALID,18.1831,VALID,127,VALID,0.900915,
2008-09-26, 02:55:00,VALID,917.573,VALID,0,VALID,100,VALID,0.0169808,VALID,18.2027,VALID,127,VALID,0.170312,
2008-09-26, 02:56:00,VALID,917.561,VALID,0,VALID,100,VALID,0.0339617,VALID,18.206,VALID,128,VALID,1.38463,
2008-09-26, 02:57:00,VALID,917.545,VALID,0.2,VALID,100,VALID,0.0169808,VALID,18.1963,VALID,126,VALID,0.832209,
2008-09-26, 02:58:00,VALID,917.543,VALID,0,VALID,100,VALID,0,VALID,18.2062,VALID,139,VALID,0.920632,
2008-09-26, 02:59:00,VALID,917.521,VALID,0,VALID,100,VALID,0,VALID,18.1963,VALID,127,VALID,0.918164,
2008-09-26, 03:00:00,VALID,917.51,VALID,0,VALID,100,VALID,0,VALID,18.19,VALID,136,VALID,1.27455,
2008-09-26, 03:01:00,VALID,917.502,VALID,0,VALID,100,VALID,0.0339617,VALID,18.18,VALID,138,VALID,1.09301,
2008-09-26, 03:02:00,VALID,917.477,VALID,0,VALID,100,VALID,0.0169808,VALID,18.1671,VALID,138,VALID,1.38336,
2008-09-26, 03:03:00,VALID,917.464,VALID,0,VALID,100,VALID,0.0169808,VALID,18.1641,VALID,146,VALID,1.30749,
2008-09-26, 03:04:00,VALID,917.432,VALID,0,VALID,100,VALID,0,VALID,18.1344,VALID,150,VALID,1.29725,
2008-09-26, 03:05:00,VALID,917.401,VALID,0,VALID,100,VALID,0,VALID,18.115,VALID,144,VALID,1.1503,
2008-09-26, 03:06:00,VALID,917.401,VALID,0,VALID,100,VALID,-0.0169808,VALID,18.099,VALID,149,VALID,1.29288,
2008-09-26, 03:07:00,VALID,917.372,VALID,0,VALID,100,VALID,0,VALID,18.086,VALID,146,VALID,1.17168,
2008-09-26, 03:08:00,VALID,917.378,VALID,0,VALID,100,VALID,-0.0509425,VALID,18.0802,VALID,148,VALID,1.45636,
2008-09-26, 03:09:00,VALID,917.373,VALID,0.2,VALID,100,VALID,-0.0339617,VALID,18.067,VALID,135,VALID,1.12676,
2008-09-26, 03:10:00,VALID,917.375,VALID,0,VALID,100,VALID,0,VALID,18.0696,VALID,144,VALID,1.47414,
2008-09-26, 03:11:00,VALID,917.374,VALID,0,VALID,100,VALID,0.0169808,VALID,18.0696,VALID,140,VALID,1.39117,
2008-09-26, 03:12:00,VALID,917.383,VALID,0,VALID,100,VALID,0,VALID,18.0536,VALID,143,VALID,1.20703,
2008-09-26, 03:13:00,VALID,917.381,VALID,0,VALID,100,VALID,0,VALID,18.0339,VALID,147,VALID,0.930246,
2008-09-26, 03:14:00,VALID,917.371,VALID,0,VALID,100,VALID,0.0339617,VALID,18.0015,VALID,154,VALID,1.51658,
2008-09-26, 03:15:00,VALID,917.381,VALID,0,VALID,100,VALID,0.0169808,VALID,17.9625,VALID,149,VALID,1.17207,
2008-09-26, 03:16:00,VALID,917.374,VALID,0,VALID,100,VALID,0,VALID,17.9461,VALID,142,VALID,0.721294,
2008-09-26, 03:17:00,VALID,917.39,VALID,0,VALID,100,VALID,0,VALID,17.9366,VALID,155,VALID,1.03754,
2008-09-26, 03:18:00,VALID,917.383,VALID,0,VALID,100,VALID,0,VALID,17.9401,VALID,158,VALID,1.57626,
2008-09-26, 03:19:00,VALID,917.388,VALID,0,VALID,100,VALID,0,VALID,17.9466,VALID,176,VALID,0.778392,
2008-09-26, 03:20:00,VALID,917.377,VALID,0,VALID,100,VALID,0,VALID,17.9595,VALID,172,VALID,1.02474,
2008-09-26, 03:21:00,VALID,917.373,VALID,0,VALID,100,VALID,-0.0169808,VALID,17.9693,VALID,173,VALID,0.888494,
2008-09-26, 03:22:00,VALID,917.346,VALID,0,VALID,100,VALID,0.0169808,VALID,17.9561,VALID,164,VALID,1.40811,
2008-09-26, 03:23:00,VALID,917.337,VALID,0,VALID,100,VALID,0,VALID,17.9561,VALID,180,VALID,0.823401,
2008-09-26, 03:24:00,VALID,917.31,VALID,0,VALID,100,VALID,0,VALID,17.9723,VALID,166,VALID,0.639863,
2008-09-26, 03:25:00,VALID,917.301,VALID,0,VALID,100,VALID,0,VALID,17.9723,VALID,156,VALID,1.30972,
2008-09-26, 03:26:00,VALID,917.297,VALID,0,VALID,100,VALID,0.0169808,VALID,17.9528,VALID,147,VALID,1.52939,
2008-09-26, 03:27:00,VALID,917.287,VALID,0,VALID,100,VALID,0.0169808,VALID,17.9172,VALID,147,VALID,1.28787,
2008-09-26, 03:28:00,VALID,917.278,VALID,0,VALID,100,VALID,0,VALID,17.9074,VALID,147,VALID,1.5642,
2008-09-26, 03:29:00,VALID,917.275,VALID,0,VALID,100,VALID,0.0169808,VALID,17.8947,VALID,145,VALID,1.41352,
2008-09-26, 03:30:00,VALID,917.284,VALID,0,VALID,100,VALID,0.0169808,VALID,17.8718,VALID,145,VALID,1.3582,
2008-09-26, 03:31:00,VALID,917.272,VALID,0,VALID,100,VALID,0,VALID,17.8588,VALID,153,VALID,1.49182,
2008-09-26, 03:32:00,VALID,917.274,VALID,0,VALID,100,VALID,-0.0169808,VALID,17.8528,VALID,151,VALID,1.76199,
2008-09-26, 03:33:00,VALID,917.26,VALID,0,VALID,100,VALID,0,VALID,17.8553,VALID,143,VALID,1.31364,
2008-09-26, 03:34:00,VALID,917.25,VALID,0,VALID,100,VALID,0,VALID,17.862,VALID,160,VALID,1.25535,
2008-09-26, 03:35:00,VALID,917.229,VALID,0,VALID,100,VALID,0,VALID,17.8553,VALID,157,VALID,0.85665,
2008-09-26, 03:36:00,VALID,917.216,VALID,0,VALID,100,VALID,-0.0169808,VALID,17.8328,VALID,161,VALID,1.35938,
2008-09-26, 03:37:00,VALID,917.202,VALID,0,VALID,100,VALID,0,VALID,17.8491,VALID,173,VALID,1.31198,
2008-09-26, 03:38:00,VALID,917.206,VALID,0,VALID,100,VALID,0,VALID,17.8558,VALID,169,VALID,1.35938,
2008-09-26, 03:39:00,VALID,917.176,VALID,0,VALID,100,VALID,-0.0169808,VALID,17.8426,VALID,174,VALID,0.688953,
2008-09-26, 03:40:00,VALID,917.195,VALID,0,VALID,100,VALID,0,VALID,17.8521,VALID,169,VALID,1.34738,
2008-09-26, 03:41:00,VALID,917.194,VALID,0,VALID,100,VALID,0.0169808,VALID,17.8456,VALID,154,VALID,1.15918,
2008-09-26, 03:42:00,VALID,917.196,VALID,0,VALID,100,VALID,-0.0339617,VALID,17.8458,VALID,152,VALID,1.40179,